Time,TemperatureF,DewpointF,PressureIn,WindDirection,WindDirectionDegrees,WindSpeedMPH,WindSpeedGustMPH,Humidity,HourlyPrecipIn,Conditions,Clouds,dailyrainin,SoftwareType,DateUTC
2013-02-14 00:08:00,72.5,70.0,29.95,SW,236,0.0,-999.0,92,-99.99,,,0.00,weatherlink.com 1.10,2013-02-14 05:08:00,
2013-02-14 00:23:00,72.3,70.0,29.95,SSW,207,0.0,-999.0,93,-99.99,,,0.00,weatherlink.com 1.10,2013-02-14 05:23:00,
2013-02-14 00:38:00,72.2,70.0,29.94,SSE,164,1.0,-999.0,93,-99.99,,,0.00,weatherlink.com 1.10,2013-02-14 05:38:00,
2013-02-14 00:53:00,72.0,70.0,29.94,SW,214,0.0,-999.0,93,-99.99,,,0.00,weatherlink.com 1.10,2013-02-14 05:53:00,
2013-02-14 01:08:00,71.8,70.0,29.94,SSE,168,0.0,-999.0,93,-99.99,,,0.00,weatherlink.com 1.10,2013-02-14 06:08:00,
2013-02-14 01:23:00,71.5,70.0,29.93,SSW,209,0.0,-999.0,94,-99.99,,,0.00,weatherlink.com 1.10,2013-02-14 06:23:00,
2013-02-14 01:38:00,71.2,69.0,29.93,SSW,211,0.0,-999.0,94,-99.99,,,0.00,weatherlink.com 1.10,2013-02-14 06:38:00,
2013-02-14 01:53:00,70.9,69.0,29.93,SSW,210,0.0,-999.0,94,-99.99,,,0.00,weatherlink.com 1.10,2013-02-14 06:53:00,
2013-02-14 02:08:00,70.7,69.0,29.92,SSW,211,0.0,-999.0,94,-99.99,,,0.00,weatherlink.com 1.10,2013-02-14 07:08:00,
2013-02-14 02:23:00,70.5,69.0,29.92,SSW,210,0.0,-999.0,95,-99.99,,,0.00,weatherlink.com 1.10,2013-02-14 07:23:00,
2013-02-14 02:38:00,70.3,69.0,29.92,SSW,210,0.0,-999.0,95,-99.99,,,0.00,weatherlink.com 1.10,2013-02-14 07:38:00,
2013-02-14 02:53:00,70.0,69.0,29.92,SSW,210,0.0,-999.0,95,-99.99,,,0.00,weatherlink.com 1.10,2013-02-14 07:53:00,
2013-02-14 03:08:00,70.0,69.0,29.92,SSW,210,0.0,-999.0,95,-99.99,,,0.00,weatherlink.com 1.10,2013-02-14 08:08:00,
2013-02-14 03:23:00,70.2,69.0,29.91,SSW,210,0.0,-999.0,95,-99.99,,,0.00,weatherlink.com 1.10,2013-02-14 08:23:00,
2013-02-14 03:38:00,70.4,69.0,29.91,SSW,203,0.0,-999.0,95,-99.99,,,0.00,weatherlink.com 1.10,2013-02-14 08:38:00,
2013-02-14 03:53:00,70.3,69.0,29.91,SSE,167,0.0,-999.0,95,-99.99,,,0.00,weatherlink.com 1.10,2013-02-14 08:53:00,
2013-02-14 04:08:00,70.5,69.0,29.92,WNW,291,1.0,-999.0,95,-99.99,,,0.00,weatherlink.com 1.10,2013-02-14 09:08:00,
2013-02-14 04:23:00,70.7,69.0,29.93,NW,324,0.0,-999.0,95,-99.99,,,0.00,weatherlink.com 1.10,2013-02-14 09:23:00,
2013-02-14 04:38:00,70.7,69.0,29.92,NW,313,0.0,-999.0,95,-99.99,,,0.00,weatherlink.com 1.10,2013-02-14 09:38:00,
2013-02-14 04:53:00,70.7,69.0,29.92,NW,311,0.0,-999.0,95,-99.99,,,0.00,weatherlink.com 1.10,2013-02-14 09:53:00,
2013-02-14 05:08:00,70.6,69.0,29.92,NW,311,0.0,-999.0,95,-99.99,,,0.00,weatherlink.com 1.10,2013-02-14 10:08:00,
2013-02-14 05:23:00,70.3,69.0,29.92,NW,326,0.0,-999.0,95,-99.99,,,0.00,weatherlink.com 1.10,2013-02-14 10:23:00,
2013-02-14 05:38:00,70.0,69.0,29.92,NW,306,0.0,-999.0,95,-99.99,,,0.00,weatherlink.com 1.10,2013-02-14 10:38:00,
2013-02-14 05:53:00,69.7,68.0,29.93,North,355,0.0,-999.0,95,-99.99,,,0.00,weatherlink.com 1.10,2013-02-14 10:53:00,
2013-02-14 06:08:00,69.0,68.0,29.94,NW,320,1.0,-999.0,95,-99.99,,,0.00,weatherlink.com 1.10,2013-02-14 11:08:00,
2013-02-14 06:23:00,68.4,67.0,29.94,NE,44,1.0,-999.0,95,-99.99,,,0.00,weatherlink.com 1.10,2013-02-14 11:23:00,
2013-02-14 06:38:00,67.8,66.0,29.94,NNE,17,0.0,-999.0,94,-99.99,,,0.00,weatherlink.com 1.10,2013-02-14 11:38:00,
2013-02-14 06:53:00,68.0,66.0,29.95,NE,55,0.0,-999.0,93,-99.99,,,0.00,weatherlink.com 1.10,2013-02-14 11:53:00,
2013-02-14 07:08:00,68.3,66.0,29.95,NE,49,0.0,-999.0,92,-99.99,,,0.00,weatherlink.com 1.10,2013-02-14 12:08:00,
2013-02-14 07:23:00,68.6,66.0,29.95,NNW,342,0.0,-999.0,91,-99.99,,,0.00,weatherlink.com 1.10,2013-02-14 12:23:00,
2013-02-14 07:38:00,68.8,66.0,29.96,NNE,19,0.0,-999.0,90,-99.99,,,0.00,weatherlink.com 1.10,2013-02-14 12:38:00,
2013-02-14 07:53:00,69.3,66.0,29.96,NE,46,1.0,-999.0,89,-99.99,,,0.00,weatherlink.com 1.10,2013-02-14 12:53:00,
2013-02-14 08:08:00,69.9,66.0,29.95,WNW,290,1.0,-999.0,88,-99.99,,,0.00,weatherlink.com 1.10,2013-02-14 13:08:00,
2013-02-14 08:23:00,70.6,67.0,29.96,NNW,329,0.0,-999.0,88,-99.99,,,0.00,weatherlink.com 1.10,2013-02-14 13:23:00,
2013-02-14 08:38:00,70.8,67.0,29.97,NE,36,0.0,-999.0,87,-99.99,,,0.00,weatherlink.com 1.10,2013-02-14 13:38:00,
2013-02-14 08:53:00,70.6,67.0,29.97,NNE,30,2.0,-999.0,88,-99.99,,,0.00,weatherlink.com 1.10,2013-02-14 13:53:00,
2013-02-14 09:08:00,70.3,67.0,29.99,NW,324,1.0,-999.0,90,-99.99,,,0.00,weatherlink.com 1.10,2013-02-14 14:08:00,
2013-02-14 09:24:00,68.8,66.0,29.99,ENE,57,0.0,-999.0,91,-99.99,,,0.01,weatherlink.com 1.10,2013-02-14 14:24:00,
2013-02-14 09:39:00,67.9,66.0,29.98,North,360,1.0,-999.0,92,-99.99,,,0.02,weatherlink.com 1.10,2013-02-14 14:39:00,
2013-02-14 09:54:00,68.0,66.0,29.99,WNW,300,1.0,-999.0,93,-99.99,,,0.02,weatherlink.com 1.10,2013-02-14 14:54:00,
2013-02-14 10:09:00,68.3,66.0,29.99,NE,34,1.0,-999.0,93,-99.99,,,0.02,weatherlink.com 1.10,2013-02-14 15:09:00,
2013-02-14 10:24:00,68.8,67.0,29.99,NE,42,0.0,-999.0,93,-99.99,,,0.02,weatherlink.com 1.10,2013-02-14 15:24:00,
2013-02-14 10:39:00,69.4,67.0,29.99,NNE,14,0.0,-999.0,92,-99.99,,,0.02,weatherlink.com 1.10,2013-02-14 15:39:00,
2013-02-14 10:54:00,70.3,68.0,29.98,East,83,3.0,-999.0,92,-99.99,,,0.02,weatherlink.com 1.10,2013-02-14 15:54:00,
2013-02-14 11:09:00,71.4,69.0,29.98,SE,141,0.0,-999.0,91,-99.99,,,0.02,weatherlink.com 1.10,2013-02-14 16:09:00,
2013-02-14 11:24:00,72.9,69.0,29.97,NW,311,2.0,-999.0,88,-99.99,,,0.02,weatherlink.com 1.10,2013-02-14 16:24:00,
2013-02-14 11:39:00,73.6,69.0,29.97,East,84,0.0,-999.0,86,-99.99,,,0.02,weatherlink.com 1.10,2013-02-14 16:39:00,
2013-02-14 11:54:00,74.8,70.0,29.96,ESE,123,1.0,-999.0,85,-99.99,,,0.02,weatherlink.com 1.10,2013-02-14 16:54:00,
2013-02-14 12:09:00,74.9,70.0,29.96,ENE,75,0.0,-999.0,84,-99.99,,,0.02,weatherlink.com 1.10,2013-02-14 17:09:00,
2013-02-14 12:24:00,75.0,70.0,29.95,ENE,63,2.0,-999.0,83,-99.99,,,0.02,weatherlink.com 1.10,2013-02-14 17:24:00,
2013-02-14 12:39:00,75.1,70.0,29.94,East,84,1.0,-999.0,85,-99.99,,,0.03,weatherlink.com 1.10,2013-02-14 17:39:00,
2013-02-14 12:54:00,75.6,71.0,29.93,ENE,69,3.0,-999.0,85,-99.99,,,0.03,weatherlink.com 1.10,2013-02-14 17:54:00,
2013-02-14 13:09:00,77.4,71.0,29.93,SSE,159,1.0,-999.0,81,-99.99,,,0.03,weatherlink.com 1.10,2013-02-14 18:09:00,
2013-02-14 13:24:00,79.6,72.0,29.91,ENE,69,0.0,-999.0,77,-99.99,,,0.03,weatherlink.com 1.10,2013-02-14 18:24:00,
2013-02-14 13:39:00,79.9,72.0,29.90,ENE,76,2.0,-999.0,77,-99.99,,,0.03,weatherlink.com 1.10,2013-02-14 18:39:00,
2013-02-14 13:54:00,79.9,72.0,29.89,ENE,76,3.0,-999.0,77,-99.99,,,0.03,weatherlink.com 1.10,2013-02-14 18:54:00,
2013-02-14 14:09:00,80.1,72.0,29.88,ESE,114,5.0,-999.0,76,-99.99,,,0.03,weatherlink.com 1.10,2013-02-14 19:09:00,
2013-02-14 14:24:00,80.4,72.0,29.87,East,91,5.0,-999.0,75,-99.99,,,0.03,weatherlink.com 1.10,2013-02-14 19:24:00,
2013-02-14 14:39:00,78.9,72.0,29.87,ESE,105,5.0,-999.0,78,-99.99,,,0.03,weatherlink.com 1.10,2013-02-14 19:39:00,
2013-02-14 14:54:00,77.4,72.0,29.88,ENE,59,4.0,-999.0,82,-99.99,,,0.03,weatherlink.com 1.10,2013-02-14 19:54:00,
2013-02-14 15:09:00,76.2,72.0,29.87,ENE,59,6.0,-999.0,86,-99.99,,,0.07,weatherlink.com 1.10,2013-02-14 20:09:00,
2013-02-14 15:24:00,74.6,72.0,29.86,ENE,64,5.0,-999.0,90,-99.99,,,0.07,weatherlink.com 1.10,2013-02-14 20:24:00,
2013-02-14 15:39:00,74.5,72.0,29.85,ESE,103,4.0,-999.0,91,-99.99,,,0.13,weatherlink.com 1.10,2013-02-14 20:39:00,
2013-02-14 15:54:00,73.9,72.0,29.85,ESE,123,4.0,-999.0,94,-99.99,,,0.39,weatherlink.com 1.10,2013-02-14 20:54:00,
2013-02-14 16:09:00,73.4,72.0,29.87,West,273,0.0,-999.0,94,-99.99,,,0.40,weatherlink.com 1.10,2013-02-14 21:09:00,
2013-02-14 16:24:00,71.5,70.0,29.87,NNE,21,6.0,-999.0,94,-99.99,,,0.72,weatherlink.com 1.10,2013-02-14 21:24:00,
2013-02-14 16:39:00,71.2,70.0,29.87,NW,313,2.0,-999.0,96,-99.99,,,0.72,weatherlink.com 1.10,2013-02-14 21:39:00,
2013-02-14 16:54:00,71.7,71.0,29.87,WNW,302,1.0,-999.0,96,-99.99,,,0.72,weatherlink.com 1.10,2013-02-14 21:54:00,
2013-02-14 17:09:00,71.7,71.0,29.87,North,355,0.0,-999.0,96,-99.99,,,0.74,weatherlink.com 1.10,2013-02-14 22:09:00,
2013-02-14 17:24:00,71.2,70.0,29.88,WNW,291,2.0,-999.0,96,-99.99,,,0.75,weatherlink.com 1.10,2013-02-14 22:24:00,
2013-02-14 17:39:00,70.2,69.0,29.88,NNW,329,2.0,-999.0,95,-99.99,,,1.08,weatherlink.com 1.10,2013-02-14 22:39:00,
2013-02-14 17:54:00,69.6,68.0,29.90,NW,323,2.0,-999.0,95,-99.99,,,1.09,weatherlink.com 1.10,2013-02-14 22:54:00,
2013-02-14 18:09:00,69.4,68.0,29.92,NW,316,1.0,-999.0,96,-99.99,,,1.20,weatherlink.com 1.10,2013-02-14 23:09:00,
2013-02-14 18:24:00,68.7,67.0,29.95,NW,317,11.0,-999.0,95,-99.99,,,1.29,weatherlink.com 1.10,2013-02-14 23:24:00,
2013-02-14 18:39:00,65.6,64.0,29.95,NW,320,9.0,-999.0,93,-99.99,,,1.31,weatherlink.com 1.10,2013-02-14 23:39:00,
2013-02-14 18:54:00,64.3,63.0,29.93,NNW,329,8.0,-999.0,95,-99.99,,,1.31,weatherlink.com 1.10,2013-02-14 23:54:00,
2013-02-14 19:09:00,63.7,62.0,29.93,NW,324,9.0,-999.0,95,-99.99,,,1.31,weatherlink.com 1.10,2013-02-15 00:09:00,
2013-02-14 19:24:00,63.6,62.0,29.94,NW,315,6.0,-999.0,95,-99.99,,,1.31,weatherlink.com 1.10,2013-02-15 00:24:00,
2013-02-14 19:39:00,63.6,62.0,29.95,North,10,6.0,-999.0,95,-99.99,,,1.31,weatherlink.com 1.10,2013-02-15 00:39:00,
2013-02-14 19:54:00,63.6,62.0,29.95,NNE,17,4.0,-999.0,95,-99.99,,,1.31,weatherlink.com 1.10,2013-02-15 00:54:00,
2013-02-14 20:09:00,63.6,62.0,29.96,NE,34,4.0,-999.0,95,-99.99,,,1.31,weatherlink.com 1.10,2013-02-15 01:09:00,
2013-02-14 20:25:00,63.7,62.0,29.96,NNW,335,1.0,-999.0,95,-99.99,,,1.31,weatherlink.com 1.10,2013-02-15 01:25:00,
2013-02-14 20:40:00,63.6,62.0,29.96,NNE,23,5.0,-999.0,95,-99.99,,,1.31,weatherlink.com 1.10,2013-02-15 01:40:00,
2013-02-14 20:55:00,63.6,62.0,29.98,NW,322,4.0,-999.0,95,-99.99,,,1.33,weatherlink.com 1.10,2013-02-15 01:55:00,
2013-02-14 21:10:00,63.4,62.0,29.98,NW,317,4.0,-999.0,95,-99.99,,,1.33,weatherlink.com 1.10,2013-02-15 02:10:00,
2013-02-14 21:25:00,63.2,62.0,29.99,WNW,298,0.0,-999.0,95,-99.99,,,1.38,weatherlink.com 1.10,2013-02-15 02:25:00,
2013-02-14 21:40:00,62.8,61.0,29.99,NW,324,2.0,-999.0,95,-99.99,,,1.46,weatherlink.com 1.10,2013-02-15 02:40:00,
2013-02-14 21:55:00,62.7,62.0,30.00,NW,319,2.0,-999.0,96,-99.99,,,1.51,weatherlink.com 1.10,2013-02-15 02:55:00,
2013-02-14 22:10:00,62.7,62.0,30.00,NW,319,2.0,-999.0,96,-99.99,,,1.56,weatherlink.com 1.10,2013-02-15 03:10:00,
2013-02-14 22:25:00,62.8,62.0,29.99,NW,306,2.0,-999.0,96,-99.99,,,1.56,weatherlink.com 1.10,2013-02-15 03:25:00,
2013-02-14 22:40:00,62.7,62.0,29.99,NW,325,2.0,-999.0,96,-99.99,,,1.56,weatherlink.com 1.10,2013-02-15 03:40:00,
2013-02-14 22:55:00,62.4,61.0,30.00,NW,311,2.0,-999.0,96,-99.99,,,1.56,weatherlink.com 1.10,2013-02-15 03:55:00,
2013-02-14 23:10:00,62.3,61.0,30.00,NNW,337,1.0,-999.0,96,-99.99,,,1.56,weatherlink.com 1.10,2013-02-15 04:10:00,
2013-02-14 23:25:00,62.5,61.0,29.98,NNW,329,8.0,-999.0,96,-99.99,,,1.57,weatherlink.com 1.10,2013-02-15 04:25:00,
2013-02-14 23:40:00,62.6,62.0,29.99,NNW,347,2.0,-999.0,96,-99.99,,,1.58,weatherlink.com 1.10,2013-02-15 04:40:00,
2013-02-14 23:55:00,62.8,62.0,29.98,NE,56,0.0,-999.0,96,-99.99,,,1.58,weatherlink.com 1.10,2013-02-15 04:55:00,